Flag for United Kingdom Weather past 2 weeks in Leicester, England, United Kingdom

Now
66 °F

Passing clouds.


Feels Like: 66 °F
Forecast: 54 / 71 °F
Wind: 8 mph from East

Location: East Midlands

Current Time: Sep 16, 2014 at 7:01:03 PM

Latest Report: Sep 16, 2014 at 6:20 PM


Visibility: N/A

Pressure: 29.98 "Hg

Humidity: 73%

Dew point: 57 °F

Location of LeicesterLocation

Historic Weather in Leicester — Graph

°F

Leicester temperature yesterday

Maximum temperature yesterday: 68 °F (at 5:50 PM)
Minimum temperature yesterday: 54 °F (at 12:20 AM)
Average temperature yesterday: 60 °F

Past Weeks' High & Low Weather Summary

 TemperatureHumidityPressure
High72 °F (Sep 3, 3:50 PM)100% (Sep 3, 6:50 AM)30.39 "Hg (Sep 3, 6:50 AM)
Low45 °F (Sep 8, 6:20 AM)46% (Sep 7, 2:50 PM)29.95 "Hg (Sep 6, 1:50 AM)
Average59 °F81%30.15 "Hg
* Reported Sep 1 5:20 PM — Sep 16 5:20 PM, Leicester, Weather by CustomWeather, © 2014

Note: Actual official high and low records may vary slightly from our data, if they occured in-between our weather recording intervals... More about our weather records

Advertising

Leicester weather history for previous 24 hours

 ConditionsComfort  
Time TempWeatherWind HumidityBarometerVisibility
5:20 PM
Sep 16
68 °FScattered clouds.10 mph69%29.98 "Hg6 mi
4:20 PM68 °FScattered clouds.12 mph73%29.98 "Hg6 mi
3:50 PM68 °FBroken clouds.10 mph73%29.98 "Hg4 mi
3:20 PM66 °FBroken clouds.9 mph78%29.98 "Hg4 mi
2:50 PM68 °FFog.9 mph73%29.98 "Hg3 mi
2:20 PM66 °FFog.8 mph78%30.01 "Hg3 mi
1:50 PM63 °FFog.8 mph83%30.01 "Hg3 mi
1:20 PM61 °FFog.7 mph88%30.01 "Hg2 mi
12:50 PM59 °FFog.7 mph88%30.01 "Hg2 mi
11:50 AM57 °FFog.10 mph94%30.04 "Hg2 mi
11:20 AM61 °FFog.9 mph88%30.04 "Hg2 mi
10:50 AM57 °FFog.9 mph100%30.04 "Hg2 mi
10:20 AM57 °FFog.8 mph100%30.04 "Hg1 mi
9:50 AM57 °FFog.8 mph100%30.04 "Hg1 mi
9:20 AM57 °FFog.7 mph94%30.04 "Hg0 mi
8:50 AM55 °FFog.6 mph100%30.04 "Hg0 mi
8:20 AM55 °FFog.5 mph100%30.04 "Hg0 mi
7:50 AM55 °FFog.6 mph100%30.01 "Hg0 mi
7:20 AM55 °FFog.6 mph100%30.01 "Hg0 mi
6:50 AM57 °FFog.6 mph94%30.01 "Hg0 mi
6:20 AM57 °FFog.5 mph94%30.01 "Hg1 mi
5:50 AM57 °FFog.6 mph94%30.01 "Hg1 mi
5:20 AM57 °FFog.5 mph94%30.01 "Hg2 mi
4:50 AM57 °FFog.5 mph94%30.01 "Hg3 mi
4:20 AM57 °FFog.5 mph94%30.01 "Hg3 mi
3:50 AM57 °FFog.5 mph100%30.01 "Hg3 mi
3:20 AM57 °FPassing clouds.6 mph100%30.04 "Hg4 mi
2:50 AM57 °FPassing clouds.5 mph100%30.04 "Hg6 mi
2:20 AM57 °FPassing clouds.3 mph100%30.01 "Hg6 mi
1:50 AM59 °FPassing clouds.3 mph94%30.01 "Hg6 mi
1:20 AM57 °FPassing clouds.5 mph100%30.01 "HgN/A
12:50 AM59 °FClear.3 mph88%30.01 "Hg10 mi
12:20 AM57 °FClear.3 mph94%30.01 "Hg10 mi
11:50 PM
Sep 15
59 °FClear.5 mph94%30.01 "Hg10 mi
11:20 PM59 °FClear.5 mph94%30.01 "Hg10 mi
10:50 PM61 °FPassing clouds.3 mph88%30.01 "HgN/A
10:20 PM61 °FPassing clouds.3 mph88%30.01 "HgN/A
9:50 PM61 °FPassing clouds.3 mph88%30.01 "HgN/A
9:20 PM61 °FPassing clouds.6 mph88%30.01 "HgN/A
8:50 PM61 °FSprinkles. Partly cloudy.3 mph94%30.04 "HgN/A
8:20 PM63 °FBroken clouds.2 mph88%30.01 "HgN/A
7:50 PM63 °FScattered clouds.3 mph88%30.01 "HgN/A
7:20 PM63 °FScattered clouds.5 mph88%30.01 "HgN/A
Weather by CustomWeather, © 2014

See weather overviewHow to use our weather pages